| time (UTC) | temp C | wind direction | speed KPH | gust KPH | rain 1hr cm | rain 24hr cm | rain mn cm | humidity % | barometer mb |
| 20260502230058 | 17 | 204 | 0.0 | 1.6 | 0.00 | 0.00 | 0.00 | 36 | 1011.3 |
| 20260502225552 | 17 | 234 | 0.0 | 1.6 | 0.00 | 0.00 | 0.00 | 38 | 1011.4 |
| 20260502225054 | 17 | 226 | 3.2 | 6.4 | 0.00 | 0.00 | 0.00 | 37 | 1011.4 |
| 20260502224554 | 17 | 253 | 3.2 | 6.4 | 0.00 | 0.00 | 0.00 | 37 | 1011.5 |
| 20260502224054 | 17 | 261 | 3.2 | 6.4 | 0.00 | 0.00 | 0.00 | 36 | 1011.6 |
| 20260502223553 | 17 | 243 | 3.2 | 4.8 | 0.00 | 0.00 | 0.00 | 37 | 1011.6 |
| 20260502223059 | 17 | 222 | 3.2 | 6.4 | 0.00 | 0.00 | 0.00 | 37 | 1011.7 |
| 20260502222553 | 17 | 249 | 3.2 | 4.8 | 0.00 | 0.00 | 0.00 | 37 | 1011.7 |
| 20260502222054 | 17 | 320 | 3.2 | 8.0 | 0.00 | 0.00 | 0.00 | 39 | 1011.7 |
| 20260502221554 | 17 | 246 | 3.2 | 6.4 | 0.00 | 0.00 | 0.00 | 38 | 1011.8 |
| 20260502221055 | 17 | 313 | 6.4 | 12.9 | 0.00 | 0.00 | 0.00 | 37 | 1011.8 |
| 20260502220553 | 17 | 265 | 1.6 | 3.2 | 0.00 | 0.00 | 0.00 | 37 | 1011.9 |
| 20260502220057 | 17 | 250 | 4.8 | 8.0 | 0.00 | 0.00 | 0.00 | 36 | 1012.1 |
| 20260502215553 | 17 | 265 | 3.2 | 4.8 | 0.00 | 0.00 | 0.00 | 36 | 1012.1 |
| 20260502215054 | 17 | 236 | 6.4 | 9.7 | 0.00 | 0.00 | 0.00 | 36 | 1012.1 |
| 20260502214554 | 17 | 261 | 3.2 | 6.4 | 0.00 | 0.00 | 0.00 | 37 | 1012.2 |
| 20260502214055 | 18 | 233 | 6.4 | 8.0 | 0.00 | 0.00 | 0.00 | 36 | 1012.2 |
| 20260502213552 | 18 | 238 | 6.4 | 8.0 | 0.00 | 0.00 | 0.00 | 35 | 1012.3 |
| 20260502213058 | 18 | 242 | 3.2 | 4.8 | 0.00 | 0.00 | 0.00 | 36 | 1012.4 |
| 20260502212553 | 18 | 240 | 6.4 | 11.3 | 0.00 | 0.00 | 0.00 | 36 | 1012.4 |
| 20260502212054 | 17 | 276 | 3.2 | 4.8 | 0.00 | 0.00 | 0.00 | 37 | 1012.5 |
| 20260502211553 | 17 | 241 | 3.2 | 11.3 | 0.00 | 0.00 | 0.00 | 35 | 1012.6 |
| 20260502211055 | 17 | 238 | 1.6 | 4.8 | 0.00 | 0.00 | 0.00 | 36 | 1012.7 |
| 20260502210554 | 17 | 235 | 6.4 | 11.3 | 0.00 | 0.00 | 0.00 | 35 | 1012.9 |
| 20260502210057 | 17 | 265 | 4.8 | 9.7 | 0.00 | 0.00 | 0.00 | 36 | 1013.0 |
| 20260502205553 | 17 | 273 | 1.6 | 3.2 | 0.00 | 0.00 | 0.00 | 37 | 1013.0 |
| 20260502205054 | 17 | 298 | 6.4 | 12.9 | 0.00 | 0.00 | 0.00 | 36 | 1013.2 |
| 20260502204555 | 17 | 318 | 8.0 | 22.5 | 0.00 | 0.00 | 0.00 | 35 | 1013.2 |
| 20260502204054 | 17 | 302 | 4.8 | 9.7 | 0.00 | 0.00 | 0.00 | 36 | 1013.4 |
| 20260502203553 | 17 | 223 | 3.2 | 6.4 | 0.00 | 0.00 | 0.00 | 36 | 1013.4 |
| 20260502203057 | 17 | 253 | 6.4 | 11.3 | 0.00 | 0.00 | 0.00 | 36 | 1013.5 |
| 20260502202553 | 17 | 220 | 3.2 | 6.4 | 0.00 | 0.00 | 0.00 | 36 | 1013.6 |
| 20260502202054 | 17 | 259 | 3.2 | 6.4 | 0.00 | 0.00 | 0.00 | 37 | 1013.8 |
| 20260502201555 | 16 | 224 | 3.2 | 3.2 | 0.00 | 0.00 | 0.00 | 37 | 1013.9 |
| 20260502201054 | 16 | 248 | 3.2 | 6.4 | 0.00 | 0.00 | 0.00 | 37 | 1014.0 |
| 20260502200553 | 16 | 253 | 3.2 | 9.7 | 0.00 | 0.00 | 0.00 | 36 | 1014.1 |
| 20260502200056 | 16 | 236 | 4.8 | 9.7 | 0.00 | 0.00 | 0.00 | 36 | 1014.2 |
| 20260502195553 | 16 | 243 | 3.2 | 6.4 | 0.00 | 0.00 | 0.00 | 37 | 1014.2 |
| 20260502195055 | 16 | 278 | 3.2 | 4.8 | 0.00 | 0.00 | 0.00 | 37 | 1014.3 |
| 20260502194555 | 16 | 223 | 3.2 | 4.8 | 0.00 | 0.00 | 0.00 | 36 | 1014.5 |
| 20260502194054 | 15 | 273 | 4.8 | 8.0 | 0.00 | 0.00 | 0.00 | 38 | 1014.5 |
| 20260502193553 | 15 | 219 | 4.8 | 8.0 | 0.00 | 0.00 | 0.00 | 36 | 1014.6 |
| 20260502193105 | 15 | 225 | 6.4 | 9.7 | 0.00 | 0.00 | 0.00 | 37 | 1014.8 |
| 20260502192559 | 15 | 316 | 8.0 | 11.3 | 0.00 | 0.00 | 0.00 | 37 | 1014.8 |
| 20260502192103 | 15 | 252 | 6.4 | 9.7 | 0.00 | 0.00 | 0.00 | 38 | 1014.9 |
| 20260502191604 | 15 | 226 | 4.8 | 9.7 | 0.00 | 0.00 | 0.00 | 38 | 1014.9 |
| 20260502191103 | 15 | 258 | 6.4 | 9.7 | 0.00 | 0.00 | 0.00 | 37 | 1015.1 |
| 20260502190603 | 15 | 240 | 4.8 | 9.7 | 0.00 | 0.00 | 0.00 | 36 | 1015.1 |
| 20260502190108 | 15 | 237 | 3.2 | 6.4 | 0.00 | 0.00 | 0.00 | 38 | 1015.3 |
| 20260502185602 | 15 | 238 | 6.4 | 12.9 | 0.00 | 0.00 | 0.00 | 38 | 1015.3 |
| 20260502185105 | 14 | 309 | 4.8 | 9.7 | 0.00 | 0.00 | 0.00 | 37 | 1015.4 |
| 20260502184605 | 14 | 293 | 6.4 | 9.7 | 0.00 | 0.00 | 0.00 | 37 | 1015.5 |
| 20260502184105 | 14 | 225 | 4.8 | 9.7 | 0.00 | 0.00 | 0.00 | 37 | 1015.7 |
| 20260502183602 | 14 | 297 | 3.2 | 3.2 | 0.00 | 0.00 | 0.00 | 39 | 1015.8 |
| 20260502183110 | 14 | 268 | 6.4 | 8.0 | 0.00 | 0.00 | 0.00 | 38 | 1016.0 |
| 20260502182602 | 14 | 220 | 3.2 | 6.4 | 0.00 | 0.00 | 0.00 | 40 | 1015.9 |
| 20260502182104 | 13 | 298 | 4.8 | 8.0 | 0.00 | 0.00 | 0.00 | 39 | 1015.9 |
| 20260502181608 | 13 | 272 | 3.2 | 4.8 | 0.00 | 0.00 | 0.00 | 39 | 1016.1 |
| 20260502181105 | 13 | 314 | 8.0 | 9.7 | 0.00 | 0.00 | 0.00 | 38 | 1016.2 |
| 20260502180604 | 13 | 251 | 3.2 | 6.4 | 0.00 | 0.00 | 0.00 | 39 | 1016.3 |
| 20260502180111 | 13 | 245 | 6.4 | 8.0 | 0.00 | 0.00 | 0.00 | 39 | 1016.3 |
| 20260502170115 | 12 | 260 | 3.2 | 4.8 | 0.00 | 0.00 | 0.00 | 42 | 1017.2 |
| 20260502164102 | 12 | 288 | 6.4 | 12.9 | 0.00 | 0.00 | 0.00 | 42 | 1017.5 |
| 20260502163602 | 12 | 228 | 6.4 | 9.7 | 0.00 | 0.00 | 0.00 | 43 | 1017.6 |
| 20260502163109 | 12 | 226 | 4.8 | 8.0 | 0.00 | 0.00 | 0.00 | 43 | 1017.7 |
| 20260502162601 | 11 | 266 | 3.2 | 6.4 | 0.00 | 0.00 | 0.00 | 44 | 1017.7 |
| 20260502162106 | 11 | 269 | 6.4 | 9.7 | 0.00 | 0.00 | 0.00 | 43 | 1017.8 |
| 20260502161608 | 11 | 289 | 3.2 | 4.8 | 0.00 | 0.00 | 0.00 | 42 | 1017.8 |
| 20260502161105 | 11 | 315 | 6.4 | 8.0 | 0.00 | 0.00 | 0.00 | 41 | 1017.9 |
| 20260502160119 | 11 | 235 | 3.2 | 4.8 | 0.00 | 0.00 | 0.00 | 42 | 1017.9 |
| 20260502152102 | 11 | 259 | 3.2 | 3.2 | 0.00 | 0.00 | 0.00 | 47 | 1018.3 |
| 20260502151606 | 10 | 300 | 3.2 | 3.2 | 0.00 | 0.00 | 0.00 | 49 | 1018.3 |
| 20260502151104 | 10 | 267 | 4.8 | 8.0 | 0.00 | 0.00 | 0.00 | 48 | 1018.4 |
| 20260502150602 | 10 | 257 | 4.8 | 6.4 | 0.00 | 0.00 | 0.00 | 46 | 1018.3 |
| 20260502150111 | 10 | 255 | 6.4 | 8.0 | 0.00 | 0.00 | 0.00 | 46 | 1018.4 |
| 20260502140119 | 8 | 306 | 3.2 | 4.8 | 0.00 | 0.00 | 0.00 | 56 | 1018.6 |
| 20260502130601 | 6 | 269 | 4.8 | 4.8 | 0.00 | 0.00 | 0.00 | 60 | 1018.8 |
| 20260502130107 | 6 | 312 | 4.8 | 4.8 | 0.00 | 0.00 | 0.00 | 59 | 1018.8 |
| 20260502123601 | 5 | 298 | 3.2 | 3.2 | 0.00 | 0.00 | 0.00 | 61 | 1018.7 |
| 20260502123106 | 5 | 285 | 3.2 | 3.2 | 0.00 | 0.00 | 0.00 | 62 | 1018.7 |
| 20260502122601 | 5 | 301 | 3.2 | 4.8 | 0.00 | 0.00 | 0.00 | 63 | 1018.7 |
| 20260502122101 | 5 | 303 | 1.6 | 3.2 | 0.00 | 0.00 | 0.00 | 62 | 1018.6 |
| 20260502121603 | 5 | 256 | 3.2 | 6.4 | 0.00 | 0.00 | 0.00 | 62 | 1018.6 |
| 20260502121105 | 5 | 259 | 4.8 | 6.4 | 0.00 | 0.00 | 0.00 | 62 | 1018.7 |
| 20260502120117 | 5 | 266 | 3.2 | 4.8 | 0.00 | 0.00 | 0.00 | 63 | 1018.7 |
| 20260502115601 | 4 | 334 | 4.8 | 6.4 | 0.00 | 0.00 | 0.00 | 62 | 1018.7 |
| 20260502115103 | 4 | 324 | 1.6 | 3.2 | 0.00 | 0.00 | 0.00 | 63 | 1018.7 |
| 20260502114603 | 4 | 318 | 1.6 | 3.2 | 0.00 | 0.00 | 0.00 | 64 | 1018.6 |
| 20260502114104 | 4 | 270 | 1.6 | 3.2 | 0.00 | 0.00 | 0.00 | 64 | 1018.5 |
| 20260502113600 | 4 | 287 | 3.2 | 3.2 | 0.00 | 0.00 | 0.00 | 65 | 1018.5 |
| 20260502113105 | 4 | 269 | 0.0 | 1.6 | 0.00 | 0.00 | 0.00 | 64 | 1018.4 |
| 20260502112600 | 4 | 254 | 1.6 | 3.2 | 0.00 | 0.00 | 0.00 | 64 | 1018.4 |
| 20260502112102 | 5 | 271 | 1.6 | 3.2 | 0.00 | 0.00 | 0.00 | 66 | 1018.4 |
| 20260502111604 | 5 | 263 | 1.6 | 1.6 | 0.00 | 0.00 | 0.00 | 63 | 1018.4 |
| 20260502111102 | 5 | 291 | 0.0 | 1.6 | 0.00 | 0.00 | 0.00 | 67 | 1018.3 |
| 20260502110110 | 5 | 261 | 0.0 | 3.2 | 0.00 | 0.00 | 0.00 | 62 | 1018.3 |
| 20260502105559 | 5 | 248 | 1.6 | 3.2 | 0.00 | 0.00 | 0.00 | 62 | 1018.3 |
| 20260502105100 | 5 | 251 | 1.6 | 3.2 | 0.00 | 0.00 | 0.00 | 60 | 1018.3 |
| 20260502104602 | 5 | 254 | 1.6 | 3.2 | 0.00 | 0.00 | 0.00 | 62 | 1018.3 |
| 20260502104101 | 5 | 237 | 3.2 | 4.8 | 0.00 | 0.00 | 0.00 | 60 | 1018.3 |
| 20260502103559 | 5 | 258 | 1.6 | 3.2 | 0.00 | 0.00 | 0.00 | 59 | 1018.3 |
| 20260502103104 | 5 | 248 | 1.6 | 3.2 | 0.00 | 0.00 | 0.00 | 58 | 1018.3 |
| 20260502102559 | 5 | 235 | 3.2 | 4.8 | 0.00 | 0.00 | 0.00 | 58 | 1018.3 |
| 20260502102059 | 5 | 241 | 1.6 | 3.2 | 0.00 | 0.00 | 0.00 | 58 | 1018.3 |
| 20260502101600 | 6 | 229 | 3.2 | 3.2 | 0.00 | 0.00 | 0.00 | 57 | 1018.3 |
| 20260502101059 | 6 | 237 | 3.2 | 4.8 | 0.00 | 0.00 | 0.00 | 56 | 1018.3 |
| 20260502100559 | 6 | 241 | 3.2 | 4.8 | 0.00 | 0.00 | 0.00 | 56 | 1018.2 |
| 20260502100107 | 6 | 233 | 3.2 | 4.8 | 0.00 | 0.00 | 0.00 | 57 | 1018.2 |
| 20260502091059 | 6 | 254 | 3.2 | 4.8 | 0.00 | 0.00 | 0.00 | 55 | 1018.2 |
| 20260502090559 | 6 | 253 | 1.6 | 3.2 | 0.00 | 0.00 | 0.00 | 54 | 1018.2 |
| 20260502071059 | 5 | 230 | 1.6 | 3.2 | 0.00 | 0.00 | 0.00 | 58 | 1018.5 |
| 20260502070559 | 5 | 228 | 1.6 | 3.2 | 0.00 | 0.00 | 0.00 | 59 | 1018.5 |
| 20260502070059 | 5 | 259 | 0.0 | 1.6 | 0.00 | 0.00 | 0.00 | 57 | 1018.6 |
| 20260502065550 | 5 | 233 | 0.0 | 1.6 | 0.00 | 0.00 | 0.00 | 59 | 1018.6 |
| 20260502065050 | 5 | 236 | 0.0 | 1.6 | 0.00 | 0.00 | 0.00 | 65 | 1018.6 |
| 20260502064551 | 5 | 0 | 0.0 | 0.0 | 0.00 | 0.00 | 0.00 | 62 | 1018.7 |
| 20260502064051 | 5 | 275 | 0.0 | 0.0 | 0.00 | 0.00 | 0.00 | 61 | 1018.7 |
| 20260502063551 | 4 | 231 | 0.0 | 1.6 | 0.00 | 0.00 | 0.00 | 61 | 1018.7 |
| 20260502063051 | 4 | 0 | 0.0 | 0.0 | 0.00 | 0.00 | 0.00 | 63 | 1018.7 |
| 20260502062550 | 4 | 0 | 0.0 | 0.0 | 0.00 | 0.00 | 0.00 | 64 | 1018.8 |
| 20260502062051 | 4 | 0 | 0.0 | 0.0 | 0.00 | 0.00 | 0.00 | 70 | 1018.7 |
| 20260502061551 | 4 | 0 | 0.0 | 0.0 | 0.00 | 0.00 | 0.00 | 73 | 1018.7 |
| 20260502061051 | 4 | 151 | 0.0 | 1.6 | 0.00 | 0.00 | 0.00 | 65 | 1018.7 |
| 20260502060551 | 4 | 0 | 0.0 | 0.0 | 0.00 | 0.00 | 0.00 | 63 | 1018.7 |
| 20260502060051 | 4 | 0 | 0.0 | 0.0 | 0.00 | 0.00 | 0.00 | 66 | 1018.7 |
| 20260502055551 | 4 | 0 | 0.0 | 0.0 | 0.00 | 0.00 | 0.00 | 64 | 1018.7 |
| 20260502055052 | 4 | 0 | 0.0 | 0.0 | 0.00 | 0.00 | 0.00 | 63 | 1018.7 |
| 20260502054551 | 4 | 237 | 0.0 | 1.6 | 0.00 | 0.00 | 0.00 | 64 | 1018.8 |
| 20260502054051 | 4 | 177 | 0.0 | 1.6 | 0.00 | 0.00 | 0.00 | 66 | 1018.8 |
| 20260502053551 | 4 | 204 | 0.0 | 1.6 | 0.00 | 0.00 | 0.00 | 72 | 1018.8 |
| 20260502053051 | 4 | 0 | 0.0 | 0.0 | 0.00 | 0.00 | 0.00 | 66 | 1018.7 |
| 20260502052551 | 4 | 220 | 0.0 | 1.6 | 0.00 | 0.00 | 0.00 | 66 | 1018.7 |
| 20260502052051 | 4 | 0 | 0.0 | 0.0 | 0.00 | 0.00 | 0.00 | 67 | 1018.7 |
| 20260502051551 | 3 | 0 | 0.0 | 0.0 | 0.00 | 0.00 | 0.00 | 67 | 1018.7 |
| 20260502051051 | 3 | 219 | 0.0 | 1.6 | 0.00 | 0.00 | 0.00 | 70 | 1018.8 |
| 20260502050551 | 3 | 0 | 0.0 | 0.0 | 0.00 | 0.00 | 0.00 | 69 | 1018.7 |
| 20260502050051 | 3 | 182 | 0.0 | 1.6 | 0.00 | 0.00 | 0.00 | 68 | 1018.7 |
| 20260502045551 | 3 | 43 | 0.0 | 0.0 | 0.00 | 0.00 | 0.00 | 69 | 1018.7 |
| 20260502045051 | 3 | 0 | 0.0 | 0.0 | 0.00 | 0.00 | 0.00 | 68 | 1018.6 |
| 20260502044551 | 3 | 198 | 0.0 | 0.0 | 0.00 | 0.00 | 0.00 | 70 | 1018.6 |
| 20260502044051 | 3 | 170 | 0.0 | 1.6 | 0.00 | 0.00 | 0.00 | 71 | 1018.6 |
| 20260502043552 | 3 | 0 | 0.0 | 0.0 | 0.00 | 0.00 | 0.00 | 70 | 1018.6 |
| 20260502043051 | 3 | 191 | 0.0 | 1.6 | 0.00 | 0.00 | 0.00 | 72 | 1018.6 |
| 20260502042551 | 3 | 0 | 0.0 | 0.0 | 0.00 | 0.00 | 0.00 | 71 | 1018.6 |
| 20260502042051 | 4 | 142 | 0.0 | 0.0 | 0.00 | 0.00 | 0.00 | 70 | 1018.6 |
| 20260502041551 | 4 | 171 | 0.0 | 1.6 | 0.00 | 0.00 | 0.00 | 69 | 1018.6 |
| 20260502041052 | 4 | 178 | 1.6 | 3.2 | 0.00 | 0.00 | 0.00 | 69 | 1018.6 |
| 20260502040551 | 4 | 195 | 0.0 | 1.6 | 0.00 | 0.00 | 0.00 | 70 | 1018.6 |
| 20260502040051 | 4 | 115 | 0.0 | 0.0 | 0.00 | 0.00 | 0.00 | 71 | 1018.6 |
| 20260502035551 | 4 | 0 | 0.0 | 0.0 | 0.00 | 0.00 | 0.00 | 70 | 1018.6 |
| 20260502035051 | 4 | 0 | 0.0 | 0.0 | 0.00 | 0.00 | 0.00 | 70 | 1018.7 |
| 20260502034551 | 4 | 0 | 0.0 | 0.0 | 0.00 | 0.00 | 0.00 | 69 | 1018.7 |
| 20260502034051 | 4 | 157 | 0.0 | 1.6 | 0.00 | 0.00 | 0.00 | 69 | 1018.7 |
| 20260502033551 | 4 | 0 | 0.0 | 0.0 | 0.00 | 0.00 | 0.00 | 70 | 1018.8 |
| 20260502033051 | 4 | 186 | 0.0 | 1.6 | 0.00 | 0.00 | 0.00 | 68 | 1018.8 |
| 20260502032551 | 4 | 0 | 0.0 | 0.0 | 0.00 | 0.00 | 0.00 | 67 | 1018.8 |
| 20260502032051 | 5 | 0 | 0.0 | 0.0 | 0.00 | 0.00 | 0.00 | 66 | 1018.8 |
| 20260502031551 | 5 | 0 | 0.0 | 0.0 | 0.00 | 0.00 | 0.00 | 67 | 1018.8 |
| 20260502031051 | 5 | 0 | 0.0 | 0.0 | 0.00 | 0.00 | 0.00 | 65 | 1018.8 |
| 20260502030551 | 5 | 179 | 0.0 | 1.6 | 0.00 | 0.00 | 0.00 | 64 | 1018.8 |
| 20260502030051 | 5 | 0 | 0.0 | 0.0 | 0.00 | 0.00 | 0.00 | 68 | 1018.8 |
| 20260502025552 | 5 | 196 | 0.0 | 1.6 | 0.00 | 0.00 | 0.00 | 64 | 1018.7 |
| 20260502025051 | 6 | 0 | 0.0 | 0.0 | 0.00 | 0.00 | 0.00 | 62 | 1018.7 |
| 20260502024552 | 6 | 0 | 0.0 | 0.0 | 0.00 | 0.00 | 0.00 | 61 | 1018.7 |
| 20260502024052 | 6 | 267 | 0.0 | 1.6 | 0.00 | 0.00 | 0.00 | 59 | 1018.7 |
| 20260502023551 | 6 | 186 | 0.0 | 1.6 | 0.00 | 0.00 | 0.00 | 57 | 1018.7 |
| 20260502023052 | 6 | 193 | 0.0 | 1.6 | 0.00 | 0.00 | 0.00 | 57 | 1018.7 |
| 20260502022552 | 6 | 171 | 0.0 | 1.6 | 0.00 | 0.00 | 0.00 | 57 | 1018.7 |
| 20260502022052 | 6 | 262 | 1.6 | 3.2 | 0.00 | 0.00 | 0.00 | 59 | 1018.7 |
| 20260502021551 | 7 | 196 | 0.0 | 1.6 | 0.00 | 0.00 | 0.00 | 59 | 1018.6 |
| 20260502021051 | 7 | 0 | 0.0 | 0.0 | 0.00 | 0.00 | 0.00 | 55 | 1018.6 |
| 20260502020551 | 7 | 0 | 0.0 | 0.0 | 0.00 | 0.00 | 0.00 | 55 | 1018.6 |
| 20260502020051 | 7 | 0 | 0.0 | 0.0 | 0.00 | 0.00 | 0.00 | 50 | 1018.5 |
| 20260502015551 | 7 | 0 | 0.0 | 0.0 | 0.00 | 0.00 | 0.00 | 49 | 1018.5 |
| 20260502015051 | 8 | 0 | 0.0 | 0.0 | 0.00 | 0.00 | 0.00 | 49 | 1018.3 |
| 20260502014551 | 8 | 0 | 0.0 | 0.0 | 0.00 | 0.00 | 0.00 | 45 | 1018.3 |
| 20260502014052 | 8 | 265 | 0.0 | 0.0 | 0.00 | 0.00 | 0.00 | 45 | 1018.3 |
| 20260502013552 | 8 | 0 | 0.0 | 0.0 | 0.00 | 0.00 | 0.00 | 46 | 1018.2 |
| 20260502013051 | 9 | 0 | 0.0 | 0.0 | 0.00 | 0.00 | 0.00 | 45 | 1018.2 |
| 20260502012551 | 9 | 244 | 0.0 | 1.6 | 0.00 | 0.00 | 0.00 | 46 | 1018.2 |
| 20260502012051 | 10 | 0 | 0.0 | 0.0 | 0.00 | 0.00 | 0.00 | 42 | 1018.1 |
| 20260502011551 | 10 | 0 | 0.0 | 0.0 | 0.00 | 0.00 | 0.00 | 39 | 1018.1 |
| 20260502011051 | 10 | 25 | 0.0 | 1.6 | 0.00 | 0.00 | 0.00 | 38 | 1018.1 |
| 20260502010551 | 10 | 0 | 0.0 | 0.0 | 0.00 | 0.00 | 0.00 | 38 | 1018.1 |
| 20260502010051 | 10 | 315 | 0.0 | 0.0 | 0.00 | 0.00 | 0.00 | 39 | 1018.1 |
| 20260502005551 | 10 | 326 | 0.0 | 1.6 | 0.00 | 0.00 | 0.00 | 41 | 1018.1 |
| 20260502005051 | 11 | 359 | 0.0 | 1.6 | 0.00 | 0.00 | 0.00 | 37 | 1018.1 |
| 20260502004552 | 11 | 317 | 3.2 | 4.8 | 0.00 | 0.00 | 0.00 | 37 | 1018.1 |
| 20260502004051 | 11 | 330 | 1.6 | 3.2 | 0.00 | 0.00 | 0.00 | 37 | 1018.1 |
| 20260502003551 | 10 | 322 | 3.2 | 6.4 | 0.00 | 0.00 | 0.00 | 36 | 1018.1 |
| 20260502003052 | 10 | 318 | 3.2 | 6.4 | 0.00 | 0.00 | 0.00 | 37 | 1018.1 |
| 20260502002552 | 11 | 212 | 0.0 | 1.6 | 0.00 | 0.00 | 0.00 | 36 | 1018.0 |
| 20260502002051 | 11 | 56 | 1.6 | 4.8 | 0.00 | 0.00 | 0.00 | 36 | 1018.0 |
| 20260502001551 | 11 | 53 | 3.2 | 6.4 | 0.00 | 0.00 | 0.00 | 35 | 1018.0 |
| 20260502001051 | 11 | 319 | 1.6 | 3.2 | 0.00 | 0.00 | 0.00 | 38 | 1018.0 |
| 20260502000551 | 11 | 33 | 3.2 | 3.2 | 0.00 | 0.00 | 0.00 | 35 | 1018.0 |
| 20260502000051 | 11 | 316 | 4.8 | 6.4 | 0.00 | 0.00 | 0.00 | 36 | 1017.9 |
| 20260501235551 | 11 | 279 | 4.8 | 6.4 | 0.00 | 0.00 | 0.00 | 35 | 1017.9 |
| 20260501235051 | 11 | 287 | 4.8 | 9.7 | 0.00 | 0.00 | 0.00 | 38 | 1018.0 |
| 20260501234551 | 11 | 285 | 3.2 | 4.8 | 0.00 | 0.00 | 0.00 | 36 | 1017.9 |
| 20260501234051 | 11 | 340 | 3.2 | 4.8 | 0.00 | 0.00 | 0.00 | 39 | 1017.9 |
| 20260501233551 | 11 | 319 | 4.8 | 6.4 | 0.00 | 0.00 | 0.00 | 37 | 1017.9 |
| 20260501233051 | 11 | 313 | 4.8 | 9.7 | 0.00 | 0.00 | 0.00 | 38 | 1018.0 |
| 20260501232551 | 11 | 233 | 1.6 | 3.2 | 0.00 | 0.00 | 0.00 | 35 | 1017.9 |
| 20260501232051 | 11 | 253 | 1.6 | 4.8 | 0.00 | 0.00 | 0.00 | 36 | 1017.9 |
| 20260501231552 | 11 | 71 | 3.2 | 6.4 | 0.00 | 0.00 | 0.00 | 33 | 1017.9 |
| 20260501231052 | 11 | 355 | 1.6 | 4.8 | 0.00 | 0.00 | 0.00 | 37 | 1017.9 |
| 20260501230551 | 11 | 329 | 3.2 | 4.8 | 0.00 | 0.00 | 0.00 | 36 | 1018.0 |